Akron Canton, OH

6:13 AM EDT on June 28, 2017 (GMT -0400)
Akron-Canton Regional

Weather History for KCAK - October, 2013

Change the Weather History Date:

Tuesday, October 15, 2013

  Actual Average Record
Temperature  
Mean Temperature 55 °F 52 °F  
Max Temperature 64 °F 61 °F 85 °F (1897)
Min Temperature 45 °F 43 °F 29 °F (1937)
Degree Days  
Heating Degree Days 10 13  
Month to date heating degree days 62 165  
Since 1 July heating degree days 177 304  
Cooling Degree Days 0 0  
Month to date cooling degree days 28 3  
Year to date cooling degree days 829 649  
Growing Degree Days 4 (Base 50)    
Moisture  
Dew Point 52 °F    
Average Humidity 86    
Maximum Humidity 93    
Minimum Humidity 78    
Precipitation  
Precipitation T in 0.09 in 2.57 in (1954)
Month to date precipitation 3.76 1.38  
Year to date precipitation 33.73 32.03  
Snow  
Snow 0.00 in 0.10 in - ()
Month to date snowfall 0.0 0.1  
Since 1 July snowfall 0.0 0.1  
Since 1 September snowfall 0.0 0.1  
Snow Depth 0.00 in    
Sea Level Pressure  
Sea Level Pressure 30.12 in    
Wind  
Wind Speed 6 mph (SE)    
Max Wind Speed 9 mph    
Max Gust Speed 10 mph    
Visibility 7 miles    
Events Fog , Rain    
T = Trace of Precipitation, MM = Missing Value Source: NWS Daily Summary

Daily Weather History Graph

Daily Weather History Graph

Search for Another Location

Airport or City:

Trip Planner

Search our weather history database for the weather conditions in past years. The results will help you decide how hot, cold, wet, or windy it might be!

Date:

Astronomy

Oct. 15, 2013 Rise Set
Actual Time 7:37 AM EDT 6:44 PM EDT
Civil Twilight 7:09 AM EDT 7:12 PM EDT
Nautical Twilight 6:37 AM EDT 7:44 PM EDT
Astronomical Twilight 6:06 AM EDT 8:16 PM EDT
Moon 4:50 PM EDT (10/15) 3:57 AM EDT (10/15)
Length of Visible Light 12h 02m
Length of Day
11h 07m
Waxing Gibbous, 87% of the Moon is Illuminated
Oct 15
Waxing Gibbous
Oct 18
Full
Oct 26
Last Quarter
Nov 3
New
Nov 10
First Quarter

Hourly Weather History & Observations

Time (EDT) Temp. Windchill Dew Point Humidity Pressure Visibility Wind Dir Wind Speed Gust Speed Precip Events Conditions
12:51 AM 48.0 °F - 42.1 °F 80% 30.25 in 10.0 mi East 4.6 mph - N/A   Clear
1:51 AM 46.0 °F 43.9 °F 41.0 °F 83% 30.22 in 10.0 mi NE 4.6 mph - N/A   Clear
2:51 AM 46.0 °F 43.9 °F 41.0 °F 83% 30.20 in 10.0 mi East 4.6 mph - N/A   Clear
3:49 AM 46.4 °F 45.2 °F 41.0 °F 81% 30.18 in 10.0 mi East 3.5 mph - N/A   Scattered Clouds
3:51 AM 46.0 °F 44.8 °F 41.0 °F 83% 30.18 in 10.0 mi East 3.5 mph - N/A   Scattered Clouds
3:59 AM 46.4 °F - 42.8 °F 87% 30.18 in 10.0 mi Calm Calm - N/A   Mostly Cloudy
4:51 AM 50.0 °F - 45.0 °F 83% 30.17 in 10.0 mi Calm Calm - N/A   Overcast
5:51 AM 52.0 °F - 46.9 °F 83% 30.17 in 10.0 mi Calm Calm - N/A   Overcast
6:36 AM 53.6 °F - 48.2 °F 82% 30.18 in 8.0 mi NE 3.5 mph - N/A   Overcast
6:51 AM 52.0 °F - 48.0 °F 86% 30.17 in 9.0 mi NE 3.5 mph - N/A   Overcast
7:35 AM 53.6 °F - 48.2 °F 82% 30.17 in 8.0 mi ESE 4.6 mph - N/A   Overcast
7:51 AM 53.1 °F - 50.0 °F 89% 30.17 in 8.0 mi ESE 5.8 mph - N/A   Overcast
8:08 AM 53.6 °F - 51.8 °F 94% 30.17 in 0.5 mi SE 5.8 mph - N/A Fog Fog
8:51 AM 54.0 °F - 52.0 °F 93% 30.17 in 0.2 mi SE 6.9 mph - N/A Fog Fog
9:51 AM 55.0 °F - 54.0 °F 96% 30.17 in 0.2 mi SSE 8.1 mph - N/A Fog Fog
9:58 AM 55.4 °F - 53.6 °F 94% 30.16 in 0.5 mi SE 5.8 mph - N/A Fog Fog
10:51 AM 55.9 °F - 54.0 °F 93% 30.16 in 1.0 mi SSE 3.5 mph - N/A   Overcast
11:13 AM 55.4 °F - 53.6 °F 94% 30.14 in 2.0 mi SE 5.8 mph - N/A   Overcast
11:51 AM 55.9 °F - 54.0 °F 93% 30.14 in 2.0 mi SE 5.8 mph - N/A   Overcast
12:51 PM 57.0 °F - 55.9 °F 96% 30.12 in 6.0 mi SSE 8.1 mph - N/A   Overcast
1:51 PM 59.0 °F - 57.0 °F 93% 30.09 in 6.0 mi SE 5.8 mph - N/A   Overcast
2:51 PM 60.8 °F - 57.0 °F 87% 30.06 in 8.0 mi SSE 3.5 mph - N/A   Overcast
3:51 PM 62.6 °F - 57.2 °F 82% 30.06 in 8.0 mi SSW 6.9 mph - N/A   Overcast
4:51 PM 64.4 °F - 57.2 °F 77% 30.04 in 8.0 mi SSW 8.1 mph - N/A   Overcast
5:51 PM 64.4 °F - 57.2 °F 77% 30.02 in 8.0 mi SSW 6.9 mph - N/A   Overcast
6:51 PM 62.6 °F - 59.0 °F 88% 30.00 in 8.0 mi South 6.9 mph - N/A   Overcast
7:51 PM 62.6 °F - 59.0 °F 88% 29.98 in 7.0 mi South 6.9 mph - N/A   Overcast
8:51 PM 62.6 °F - 59.0 °F 88% 29.97 in 7.0 mi South 6.9 mph - N/A   Overcast
9:51 PM 62.6 °F - 59.0 °F 88% 29.97 in 7.0 mi South 6.9 mph - N/A   Overcast
10:51 PM 62.6 °F - 57.2 °F 82% 29.96 in 8.0 mi South 6.9 mph - N/A   Overcast
11:51 PM 62.6 °F - 57.2 °F 82% 29.96 in 10.0 mi South 6.9 mph - 0.00 in Rain Light Rain